Flag for Canada Weather past 2 weeks in Toronto, Ontario, Canada

Now
21 °F

Broken clouds.


Feels Like: 7 °F
Forecast: N/A
Wind: 17 mph from Southwest

Location: Toronto Pearson International Airport

Current Time: Mar 6, 2015 at 5:13:48 PM

Latest Report: Mar 6, 2015 at 4:00 PM


Visibility: 15 mi

Pressure: 30.32 "Hg

Humidity: 49%

Dew point: 5 °F

Location of TorontoLocation

Historic Weather in Toronto — Graph

°F

Toronto temperature yesterday

Maximum temperature yesterday: 14 °F (at 12:00 AM)
Minimum temperature yesterday: 3 °F (at 6:00 AM)
Average temperature yesterday: 9 °F

Past Weeks' High & Low Weather Summary

 TemperatureHumidityPressure
High34 °F (Mar 3, 10:00 PM)100% (Mar 3, 8:00 PM)30.80 "Hg (Mar 3, 8:00 PM)
Low-9 °F (Feb 20, 3:00 AM)35% (Feb 20, 5:00 PM)29.57 "Hg (Mar 3, 7:00 PM)
Average11 °F66%30.24 "Hg
* Reported Feb 19 3:00 PM — Mar 6 3:00 PM, Toronto, Weather by CustomWeather, © 2015

Note: Actual official high and low records may vary slightly from our data, if they occured in-between our weather recording intervals... More about our weather records

Advertising

Toronto weather history for previous 24 hours

 ConditionsComfort  
Time TempWeatherWind HumidityBarometerVisibility
3:00 PM
Fri, Mar 6
21 °FPartly sunny.16 mph54%30.35 "Hg15 mi
2:00 PM21 °FPartly sunny.15 mph49%30.39 "Hg15 mi
1:00 PM19 °FPartly sunny.16 mph53%30.43 "Hg15 mi
12:00 PM18 °FPartly sunny.16 mph53%30.47 "Hg15 mi
11:00 AM16 °FScattered clouds.15 mph57%30.48 "Hg15 mi
10:00 AM14 °FSunny.10 mph57%30.50 "Hg15 mi
9:00 AM9 °FSunny.12 mph66%30.51 "Hg15 mi
8:00 AM7 °FPassing clouds.12 mph66%30.52 "Hg15 mi
7:00 AM1 °FPassing clouds.8 mph71%30.52 "Hg15 mi
6:00 AM0 °FPassing clouds.9 mph71%30.52 "Hg15 mi
5:00 AM1 °FClear.12 mph71%30.51 "Hg15 mi
4:00 AM1 °FClear.7 mph78%30.50 "Hg15 mi
3:00 AM1 °FClear.6 mph78%30.52 "Hg15 mi
2:00 AM1 °FClear.2 mph78%30.53 "Hg15 mi
1:00 AM1 °FClear.5 mph71%30.52 "Hg15 mi
12:00 AM3 °FClear.6 mph66%30.52 "Hg15 mi
11:00 PM
Thu, Mar 5
5 °FClear.8 mph60%30.53 "Hg15 mi
10:00 PM7 °FClear.7 mph61%30.52 "Hg15 mi
9:00 PM9 °FClear.12 mph56%30.50 "Hg15 mi
8:00 PM9 °FClear.6 mph47%30.48 "Hg15 mi
7:00 PM10 °FPassing clouds.10 mph47%30.46 "Hg15 mi
6:00 PM12 °FPassing clouds.10 mph48%30.41 "Hg15 mi
5:00 PM14 °FScattered clouds.12 mph44%30.39 "Hg15 mi
Weather by CustomWeather, © 2015

See weather overviewHow to use our weather pages